ProjectID,Date,Electric Generation,Electric Utility Import,Facility Electric Load
,YYYY-MM-DD,kW,kW,kW
113,2013-02-01,-6.5,,-6.5
113,2013-02-02,-6.5,,-6.5
113,2013-02-03,-6.5,,-6.5
113,2013-02-04,-6.5,,-6.5
113,2013-02-05,-6.5,,-6.5
113,2013-02-06,-6.5,,-6.5
113,2013-02-07,-6.5,,-6.5
113,2013-02-08,-6.5,,-6.5
113,2013-02-09,-6.5,,-6.5
113,2013-02-10,-6.5,,-6.5
113,2013-02-11,-6.5,,-6.5
113,2013-02-12,36.058458333333334,,36.058458333333334
113,2013-02-13,122.50454166666667,,122.50454166666667
113,2013-02-14,113.95191666666666,,113.95191666666666
113,2013-02-15,109.347,,109.347
113,2013-02-16,111.48541666666667,,111.48541666666667
113,2013-02-17,78.75825,,78.75825
113,2013-02-18,53.064,,53.064
113,2013-02-19,95.781625,,95.781625
113,2013-02-20,94.62233333333334,,94.62233333333334
113,2013-02-21,63.4025,,63.4025
113,2013-02-22,56.784083333333335,,56.784083333333335
113,2013-02-23,53.27058333333333,,53.27058333333333
113,2013-02-24,53.308708333333335,,53.308708333333335
113,2013-02-25,45.70666666666667,,45.70666666666667
113,2013-02-26,57.29191666666667,,57.29191666666667
113,2013-02-27,112.37925,,112.37925
113,2013-02-28,99.62170833333333,,99.62170833333333
113,2013-03-01,112.11083333333333,,112.11083333333333
113,2013-03-02,112.15416666666665,,112.15416666666665
113,2013-03-03,68.88083333333334,,68.88083333333334
113,2013-03-04,90.397375,,90.397375
113,2013-03-05,105.5245,,105.5245
113,2013-03-06,89.83345833333334,,89.83345833333334
113,2013-03-07,111.53724999999999,,111.53724999999999
113,2013-03-08,99.36604166666666,,99.36604166666666
113,2013-03-09,106.736875,,106.736875
113,2013-03-10,104.48087500000001,,104.48087500000001
113,2013-03-11,101.51929166666667,,101.51929166666667
113,2013-03-12,115.73754166666667,,115.73754166666667
113,2013-03-13,138.44366666666667,,138.44366666666667
113,2013-03-14,110.307,,110.307
113,2013-03-15,121.89333333333333,,121.89333333333333
113,2013-03-16,119.74608333333333,,119.74608333333333
113,2013-03-17,119.60133333333333,,119.60133333333333
113,2013-03-18,122.69370833333333,,122.69370833333333
113,2013-03-19,121.60000000000001,,121.60000000000001
113,2013-03-20,120.262625,,120.262625
113,2013-03-21,119.72141666666666,,119.72141666666666
113,2013-03-22,137.64587500000002,,137.64587500000002
113,2013-03-23,140.26808333333335,,140.26808333333335
113,2013-03-24,119.90754166666666,,119.90754166666666
113,2013-03-25,76.63529166666667,,76.63529166666667
113,2013-03-26,-3.502291666666667,,-3.502291666666667
113,2013-03-27,31.090625,,31.090625
113,2013-03-28,21.92079166666667,,21.92079166666667
113,2013-03-29,44.196583333333336,,44.196583333333336
113,2013-03-30,110.18270833333334,,110.18270833333334
113,2013-03-31,109.94558333333333,,109.94558333333333
113,2013-04-01,110.53295833333334,,110.53295833333334
113,2013-04-02,109.83491666666667,,109.83491666666667
113,2013-04-03,109.64266666666667,,109.64266666666667
113,2013-04-04,80.08816666666667,,80.08816666666667
113,2013-04-05,110.221,,110.221
113,2013-04-06,110.11691666666667,,110.11691666666667
113,2013-04-07,110.04016666666666,,110.04016666666666
113,2013-04-08,108.33733333333333,,108.33733333333333
113,2013-04-09,77.82329166666666,,77.82329166666666
113,2013-04-10,60.312625,,60.312625
113,2013-04-11,96.26841666666667,,96.26841666666667
113,2013-04-12,112.73266666666666,,112.73266666666666
113,2013-04-13,112.70479166666667,,112.70479166666667
113,2013-04-14,112.36895833333334,,112.36895833333334
113,2013-04-15,112.88016666666665,,112.88016666666665
113,2013-04-16,110.27641666666666,,110.27641666666666
113,2013-04-17,104.02395833333333,,104.02395833333333
113,2013-04-18,96.61312500000001,,96.61312500000001
113,2013-04-19,127.55141666666667,,127.55141666666667
113,2013-04-20,184.42712500000002,,184.42712500000002
113,2013-04-21,181.01816666666664,,181.01816666666664
113,2013-04-22,166.04925,,166.04925
113,2013-04-23,176.65120833333333,,176.65120833333333
113,2013-04-24,154.21941666666666,,154.21941666666666
113,2013-04-25,146.43504166666665,,146.43504166666665
113,2013-04-26,142.771375,,142.771375
113,2013-04-27,142.7415,,142.7415
113,2013-04-28,142.525,,142.525
113,2013-04-29,171.85258333333334,,171.85258333333334
113,2013-04-30,170.2325,,170.2325
113,2013-05-01,160.86766666666668,,160.86766666666668
113,2013-05-02,150.57504166666666,,150.57504166666666
113,2013-05-03,145.56583333333333,,145.56583333333333
113,2013-05-04,141.95475000000002,,141.95475000000002
113,2013-05-05,141.927,,141.927
113,2013-05-06,162.75995833333334,,162.75995833333334
113,2013-05-07,112.12383333333334,,112.12383333333334
113,2013-05-08,139.10704166666667,,139.10704166666667
113,2013-05-09,182.97691666666665,,182.97691666666665
113,2013-05-10,183.5834583333333,,183.5834583333333
113,2013-05-11,184.44320833333333,,184.44320833333333
113,2013-05-12,153.35570833333333,,153.35570833333333
113,2013-05-13,86.835625,,86.835625
113,2013-05-14,58.24658333333333,,58.24658333333333
113,2013-05-15,-0.456,,-0.456
113,2013-05-16,52.109208333333335,,52.109208333333335
113,2013-05-17,-4.000791666666667,,-4.000791666666667
113,2013-05-18,-7.150625000000001,,-7.150625000000001
113,2013-05-19,-6.934,,-6.934
113,2013-05-20,-0.27220833333333333,,-0.27220833333333333
113,2013-05-21,32.875708333333336,,32.875708333333336
113,2013-05-22,52.631499999999996,,52.631499999999996
113,2013-05-23,116.332375,,116.332375
113,2013-05-24,57.78508333333334,,57.78508333333334
113,2013-05-25,-6.734541666666666,,-6.734541666666666
113,2013-05-26,-6.532875,,-6.532875
113,2013-05-27,-6.532291666666667,,-6.532291666666667
113,2013-05-28,16.26875,,16.26875
113,2013-05-29,68.47449999999999,,68.47449999999999
113,2013-05-30,51.504416666666664,,51.504416666666664
113,2013-05-31,-8.018333333333333,,-8.018333333333333
113,2013-06-01,-7.608958333333334,,-7.608958333333334
113,2013-06-02,-7.431875000000001,,-7.431875000000001
113,2013-06-03,-7.532166666666666,,-7.532166666666666
113,2013-06-04,-7.525458333333333,,-7.525458333333333
113,2013-06-05,40.382583333333336,,40.382583333333336
113,2013-06-06,119.00795833333332,,119.00795833333332
113,2013-06-07,77.50991666666667,,77.50991666666667
113,2013-06-08,-7.123208333333333,,-7.123208333333333
113,2013-06-09,-7.1213750000000005,,-7.1213750000000005
113,2013-06-10,21.450458333333334,,21.450458333333334
113,2013-06-11,118.69487500000001,,118.69487500000001
113,2013-06-12,74.84179166666667,,74.84179166666667
113,2013-06-13,55.07908333333333,,55.07908333333333
113,2013-06-14,26.482166666666668,,26.482166666666668
113,2013-06-15,-7.442083333333334,,-7.442083333333334
113,2013-06-16,-7.431708333333333,,-7.431708333333333
113,2013-06-17,46.167833333333334,,46.167833333333334
113,2013-06-18,78.62925,,78.62925
113,2013-06-19,32.33741666666666,,32.33741666666666
113,2013-06-20,64.64399999999999,,64.64399999999999
113,2013-06-21,67.12908333333333,,67.12908333333333
113,2013-06-22,67.25045833333333,,67.25045833333333
113,2013-06-23,67.08820833333333,,67.08820833333333
113,2013-06-24,117.318375,,117.318375
113,2013-06-25,130.48170833333333,,130.48170833333333
113,2013-06-26,-2.7688333333333333,,-2.7688333333333333
113,2013-06-27,66.94725,,66.94725
113,2013-06-28,108.90683333333334,,108.90683333333334
113,2013-06-29,109.08016666666667,,109.08016666666667
113,2013-06-30,106.38716666666666,,106.38716666666666
113,2013-07-01,142.9615,,142.9615
113,2013-07-02,141.539625,,141.539625
113,2013-07-03,142.82129166666667,,142.82129166666667
113,2013-07-04,141.00041666666667,,141.00041666666667
113,2013-07-05,142.04025,,142.04025
113,2013-07-06,112.31733333333334,,112.31733333333334
113,2013-07-07,-7.4346250000000005,,-7.4346250000000005
113,2013-07-08,48.90775,,48.90775
113,2013-07-09,115.31016666666666,,115.31016666666666
113,2013-07-10,142.82470833333335,,142.82470833333335
113,2013-07-11,141.85270833333334,,141.85270833333334
113,2013-07-12,85.21191666666667,,85.21191666666667
113,2013-07-13,-6.529,,-6.529
113,2013-07-14,-6.529791666666667,,-6.529791666666667
113,2013-07-15,-2.9755416666666665,,-2.9755416666666665
113,2013-07-16,-2.435916666666667,,-2.435916666666667
113,2013-07-17,-0.05104166666666667,,-0.05104166666666667
113,2013-07-18,32.90683333333333,,32.90683333333333
113,2013-07-19,91.21741666666667,,91.21741666666667
113,2013-07-20,34.40533333333333,,34.40533333333333
113,2013-07-21,22.545583333333337,,22.545583333333337
113,2013-07-22,50.03970833333333,,50.03970833333333
113,2013-07-23,108.70158333333335,,108.70158333333335
113,2013-07-24,109.57125,,109.57125
113,2013-07-25,81.40608333333334,,81.40608333333334
113,2013-07-26,82.86033333333333,,82.86033333333333
113,2013-07-27,84.95625,,84.95625
113,2013-07-28,66.99849999999999,,66.99849999999999
113,2013-07-29,97.69370833333333,,97.69370833333333
113,2013-07-30,84.85787499999999,,84.85787499999999
113,2013-07-31,92.29412500000001,,92.29412500000001
113,2013-08-01,69.65041666666666,,69.65041666666666
113,2013-08-02,67.765,,67.765
113,2013-08-03,67.54554166666667,,67.54554166666667
113,2013-08-04,67.65825,,67.65825
113,2013-08-05,68.932875,,68.932875
113,2013-08-06,69.727625,,69.727625
113,2013-08-07,47.572291666666665,,47.572291666666665
113,2013-08-08,67.29545833333333,,67.29545833333333
113,2013-08-09,123.791625,,123.791625
113,2013-08-10,148.05308333333332,,148.05308333333332
113,2013-08-11,148.345625,,148.345625
113,2013-08-12,169.65275,,169.65275
113,2013-08-13,165.50887500000002,,165.50887500000002
113,2013-08-14,114.78375,,114.78375
113,2013-08-15,118.22695833333334,,118.22695833333334
113,2013-08-16,126.49970833333333,,126.49970833333333
113,2013-08-17,126.79016666666666,,126.79016666666666
113,2013-08-18,127.13779166666666,,127.13779166666666
113,2013-08-19,126.60924999999999,,126.60924999999999
113,2013-08-20,130.8735,,130.8735
113,2013-08-21,144.33333333333334,,144.33333333333334
113,2013-08-22,153.07425,,153.07425
113,2013-08-23,123.49545833333333,,123.49545833333333
113,2013-08-24,-6.625125,,-6.625125
113,2013-08-25,-6.532708333333333,,-6.532708333333333
113,2013-08-26,-6.5300416666666665,,-6.5300416666666665
113,2013-08-27,38.79354166666666,,38.79354166666666
113,2013-08-28,164.611625,,164.611625
113,2013-08-29,215.29316666666668,,215.29316666666668
113,2013-08-30,212.19916666666666,,212.19916666666666
113,2013-08-31,201.08408333333333,,201.08408333333333
113,2013-09-01,201.63233333333335,,201.63233333333335
113,2013-09-02,196.40170833333332,,196.40170833333332
113,2013-09-03,183.56408333333331,,183.56408333333331
113,2013-09-04,200.68275000000003,,200.68275000000003
113,2013-09-05,180.97695833333333,,180.97695833333333
113,2013-09-06,147.00808333333333,,147.00808333333333
113,2013-09-07,145.34,,145.34
113,2013-09-08,146.49008333333333,,146.49008333333333
113,2013-09-09,145.784,,145.784
113,2013-09-10,179.23591666666667,,179.23591666666667
113,2013-09-11,202.39229166666667,,202.39229166666667
113,2013-09-12,205.73845833333334,,205.73845833333334
113,2013-09-13,139.66908333333333,,139.66908333333333
113,2013-09-14,-7.192666666666667,,-7.192666666666667
113,2013-09-15,-6.53625,,-6.53625
113,2013-09-16,40.71933333333333,,40.71933333333333
113,2013-09-17,72.87754166666666,,72.87754166666666
113,2013-09-18,72.80691666666667,,72.80691666666667
113,2013-09-19,72.86379166666667,,72.86379166666667
113,2013-09-20,105.59816666666667,,105.59816666666667
113,2013-09-21,136.45175,,136.45175
113,2013-09-22,44.90924999999999,,44.90924999999999
113,2013-09-23,65.44562499999999,,65.44562499999999
113,2013-09-24,128.65020833333332,,128.65020833333332
113,2013-09-25,130.73741666666666,,130.73741666666666
113,2013-09-26,124.21716666666667,,124.21716666666667
113,2013-09-27,129.02020833333333,,129.02020833333333
113,2013-09-28,129.02675,,129.02675
113,2013-09-29,129.481125,,129.481125
113,2013-09-30,129.53908333333334,,129.53908333333334
113,2013-10-01,129.439375,,129.439375
113,2013-10-02,149.120125,,149.120125
113,2013-10-03,157.63191666666668,,157.63191666666668
113,2013-10-04,156.83516666666665,,156.83516666666665
113,2013-10-05,156.48416666666665,,156.48416666666665
113,2013-10-06,156.56016666666667,,156.56016666666667
113,2013-10-07,159.39591666666666,,159.39591666666666
113,2013-10-08,83.11691666666667,,83.11691666666667
113,2013-10-09,71.4715,,71.4715
113,2013-10-10,131.971125,,131.971125
113,2013-10-11,140.87775,,140.87775
113,2013-10-12,53.87883333333334,,53.87883333333334
113,2013-10-13,-6.557708333333333,,-6.557708333333333
113,2013-10-14,73.6135,,73.6135
113,2013-10-15,113.686375,,113.686375
113,2013-10-16,130.33237499999998,,130.33237499999998
113,2013-10-17,134.308,,134.308
113,2013-10-18,91.73070833333333,,91.73070833333333
113,2013-10-19,115.86041666666667,,115.86041666666667
113,2013-10-20,115.45529166666667,,115.45529166666667
113,2013-10-21,116.066875,,116.066875
113,2013-10-22,115.82079166666666,,115.82079166666666
113,2013-10-23,95.70516666666667,,95.70516666666667
113,2013-10-24,67.02787500000001,,67.02787500000001
113,2013-10-25,84.80725,,84.80725
113,2013-10-26,93.05279166666666,,93.05279166666666
113,2013-10-27,92.84416666666668,,92.84416666666668
113,2013-10-28,92.8555,,92.8555
113,2013-10-29,91.91945833333334,,91.91945833333334
113,2013-10-30,11.430416666666666,,11.430416666666666
113,2013-10-31,47.266041666666666,,47.266041666666666
113,2013-11-01,86.70945833333333,,86.70945833333333
113,2013-11-02,85.38883333333332,,85.38883333333332
113,2013-11-03,85.117625,,85.117625
113,2013-11-04,85.36779166666668,,85.36779166666668
113,2013-11-05,85.49362500000001,,85.49362500000001
113,2013-11-06,68.00466666666667,,68.00466666666667
113,2013-11-07,91.97733333333333,,91.97733333333333
113,2013-11-08,87.95966666666668,,87.95966666666668
113,2013-11-09,91.93433333333333,,91.93433333333333
113,2013-11-10,91.75316666666667,,91.75316666666667
113,2013-11-11,92.18229166666667,,92.18229166666667
113,2013-11-12,91.96420833333333,,91.96420833333333
113,2013-11-13,92.09370833333332,,92.09370833333332
113,2013-11-14,91.48483333333333,,91.48483333333333
113,2013-11-15,91.83620833333333,,91.83620833333333
113,2013-11-16,91.95170833333333,,91.95170833333333
113,2013-11-17,91.91479166666666,,91.91479166666666
113,2013-11-18,91.51995833333332,,91.51995833333332
113,2013-11-19,89.06183333333333,,89.06183333333333
113,2013-11-20,90.48029166666667,,90.48029166666667
113,2013-11-21,51.23320833333333,,51.23320833333333
113,2013-11-22,-6.32075,,-6.32075
113,2013-11-23,-6.535708333333333,,-6.535708333333333
113,2013-11-24,-6.535666666666667,,-6.535666666666667
113,2013-11-25,19.476541666666666,,19.476541666666666
113,2013-11-26,86.48008333333333,,86.48008333333333
113,2013-11-27,125.50145833333333,,125.50145833333333
113,2013-11-28,43.15616666666667,,43.15616666666667
113,2013-11-29,79.144125,,79.144125
113,2013-11-30,112.31833333333333,,112.31833333333333
113,2013-12-01,112.52816666666666,,112.52816666666666
113,2013-12-02,117.64970833333332,,117.64970833333332
113,2013-12-03,112.837125,,112.837125
113,2013-12-04,96.19175,,96.19175
113,2013-12-05,81.247125,,81.247125
113,2013-12-06,119.59795833333334,,119.59795833333334
113,2013-12-07,20.357499999999998,,20.357499999999998
113,2013-12-08,-5.177583333333334,,-5.177583333333334
113,2013-12-09,79.54125,,79.54125
113,2013-12-10,124.26358333333333,,124.26358333333333
113,2013-12-11,126.55445833333333,,126.55445833333333
113,2013-12-12,126.53208333333333,,126.53208333333333
113,2013-12-13,94.31954166666667,,94.31954166666667
113,2013-12-14,40.61120833333333,,40.61120833333333
113,2013-12-15,41.08441666666666,,41.08441666666666
113,2013-12-16,59.075208333333336,,59.075208333333336
113,2013-12-17,50.028375000000004,,50.028375000000004
113,2013-12-18,40.274125,,40.274125
113,2013-12-19,63.19275,,63.19275
113,2013-12-20,61.63141666666667,,61.63141666666667
113,2013-12-21,57.217000000000006,,57.217000000000006
113,2013-12-22,56.947583333333334,,56.947583333333334
113,2013-12-23,56.041500000000006,,56.041500000000006
113,2013-12-24,57.55925,,57.55925
113,2013-12-25,58.036375,,58.036375
113,2013-12-26,58.144125,,58.144125
113,2013-12-27,58.00483333333333,,58.00483333333333
113,2013-12-28,57.256125,,57.256125
113,2013-12-29,29.254791666666666,,29.254791666666666
113,2013-12-30,35.803916666666666,,35.803916666666666
113,2013-12-31,56.05866666666666,,56.05866666666666
113,2014-01-01,56.13729166666667,,56.13729166666667
113,2014-01-02,56.79716666666667,,56.79716666666667
113,2014-01-03,57.64279166666666,,57.64279166666666
113,2014-01-04,57.18391666666667,,57.18391666666667
113,2014-01-05,57.29554166666667,,57.29554166666667
113,2014-01-06,52.601416666666665,,52.601416666666665
113,2014-01-07,55.266416666666665,,55.266416666666665
113,2014-01-08,56.47291666666666,,56.47291666666666
113,2014-01-09,49.182874999999996,,49.182874999999996
113,2014-01-10,51.135250000000006,,51.135250000000006
113,2014-01-11,10.716708333333335,,10.716708333333335
113,2014-01-12,-6.53625,,-6.53625
113,2014-01-13,29.582416666666663,,29.582416666666663
113,2014-01-14,51.046083333333335,,51.046083333333335
113,2014-01-15,52.442791666666665,,52.442791666666665
113,2014-01-16,55.154625,,55.154625
113,2014-01-17,56.73933333333333,,56.73933333333333
113,2014-01-18,53.00829166666667,,53.00829166666667
113,2014-01-19,53.29291666666666,,53.29291666666666
113,2014-01-20,56.985458333333334,,56.985458333333334
113,2014-01-21,62.969500000000004,,62.969500000000004
113,2014-01-22,59.20733333333334,,59.20733333333334
113,2014-01-23,58.140791666666665,,58.140791666666665
113,2014-01-24,53.40683333333333,,53.40683333333333
113,2014-01-25,53.41945833333333,,53.41945833333333
113,2014-01-26,53.13491666666667,,53.13491666666667
113,2014-01-27,62.76291666666666,,62.76291666666666
113,2014-01-28,64.46783333333333,,64.46783333333333
113,2014-01-29,56.56716666666667,,56.56716666666667
113,2014-01-30,21.983249999999998,,21.983249999999998
113,2014-01-31,36.94954166666667,,36.94954166666667
113,2014-02-01,55.066375,,55.066375
113,2014-02-02,55.196374999999996,,55.196374999999996
113,2014-02-03,57.456291666666665,,57.456291666666665
113,2014-02-04,57.23920833333333,,57.23920833333333
113,2014-02-05,59.804541666666665,,59.804541666666665
113,2014-02-06,59.23458333333334,,59.23458333333334
113,2014-02-07,58.86858333333333,,58.86858333333333
113,2014-02-08,59.27066666666667,,59.27066666666667
113,2014-02-09,59.0745,,59.0745
113,2014-02-10,58.947541666666666,,58.947541666666666
113,2014-02-11,59.40775,,59.40775
113,2014-02-12,58.29541666666666,,58.29541666666666
113,2014-02-13,54.70616666666667,,54.70616666666667
113,2014-02-14,54.003083333333336,,54.003083333333336
113,2014-02-15,57.19491666666667,,57.19491666666667
113,2014-02-16,57.08733333333333,,57.08733333333333
113,2014-02-17,57.0615,,57.0615
113,2014-02-18,55.586999999999996,,55.586999999999996
113,2014-02-19,54.694041666666664,,54.694041666666664
113,2014-02-20,38.24554166666667,,38.24554166666667
113,2014-02-21,35.56495833333333,,35.56495833333333
113,2014-02-22,35.006625,,35.006625
113,2014-02-23,-6.5360000000000005,,-6.5360000000000005
113,2014-02-24,33.83291666666667,,33.83291666666667
113,2014-02-25,52.86504166666666,,52.86504166666666
113,2014-02-26,52.699958333333335,,52.699958333333335
113,2014-02-27,52.745583333333336,,52.745583333333336
113,2014-02-28,36.84766666666667,,36.84766666666667
113,2014-03-01,53.09429166666666,,53.09429166666666
113,2014-03-02,15.521166666666666,,15.521166666666666
113,2014-03-03,35.418,,35.418
113,2014-03-04,53.11179166666667,,53.11179166666667
113,2014-03-05,53.4245,,53.4245
113,2014-03-06,53.28395833333334,,53.28395833333334
113,2014-03-07,52.69275,,52.69275
113,2014-03-08,50.77820833333333,,50.77820833333333
113,2014-03-09,50.96641666666667,,50.96641666666667
113,2014-03-10,51.37404166666667,,51.37404166666667
113,2014-03-11,45.603625,,45.603625
113,2014-03-12,21.857541666666666,,21.857541666666666
113,2014-03-13,33.80295833333333,,33.80295833333333
113,2014-03-14,52.357458333333334,,52.357458333333334
113,2014-03-15,33.276666666666664,,33.276666666666664
113,2014-03-16,-6.776833333333333,,-6.776833333333333
113,2014-03-17,45.68216666666667,,45.68216666666667
113,2014-03-18,53.47541666666667,,53.47541666666667
113,2014-03-19,58.083875,,58.083875
113,2014-03-20,64.81125,,64.81125
113,2014-03-21,67.364875,,67.364875
113,2014-03-22,59.362500000000004,,59.362500000000004
113,2014-03-23,17.458666666666666,,17.458666666666666
113,2014-03-24,70.38170833333334,,70.38170833333334
113,2014-03-25,22.35683333333333,,22.35683333333333
113,2014-03-26,-6.540958333333333,,-6.540958333333333
113,2014-03-27,54.96783333333334,,54.96783333333334
113,2014-03-28,67.59329166666667,,67.59329166666667
113,2014-03-29,34.80258333333333,,34.80258333333333
113,2014-03-30,-6.540583333333333,,-6.540583333333333
113,2014-03-31,26.227416666666667,,26.227416666666667
113,2014-04-01,26.2685,,26.2685
113,2014-04-02,52.331625,,52.331625
113,2014-04-03,52.453,,52.453
113,2014-04-04,48.24041666666667,,48.24041666666667
113,2014-04-05,47.87083333333334,,47.87083333333334
113,2014-04-06,48.164125000000006,,48.164125000000006
113,2014-04-07,71.491,,71.491
113,2014-04-08,77.88316666666667,,77.88316666666667
113,2014-04-09,114.69479166666667,,114.69479166666667
113,2014-04-10,119.64524999999999,,119.64524999999999
113,2014-04-11,125.35358333333333,,125.35358333333333
113,2014-04-12,129.04945833333332,,129.04945833333332
113,2014-04-13,99.04179166666667,,99.04179166666667
113,2014-04-14,111.61125,,111.61125
113,2014-04-15,125.95675,,125.95675
113,2014-04-16,111.08075000000001,,111.08075000000001
113,2014-04-17,133.24129166666668,,133.24129166666668
113,2014-04-18,123.47233333333332,,123.47233333333332
113,2014-04-19,89.35820833333334,,89.35820833333334
113,2014-04-20,91.29491666666667,,91.29491666666667
113,2014-04-21,113.91224999999999,,113.91224999999999
113,2014-04-22,113.65329166666668,,113.65329166666668
113,2014-04-23,106.56370833333334,,106.56370833333334
113,2014-04-24,125.72699999999999,,125.72699999999999
113,2014-04-25,115.17824999999999,,115.17824999999999
113,2014-04-26,87.58191666666666,,87.58191666666666
113,2014-04-27,86.186875,,86.186875
113,2014-04-28,119.29845833333333,,119.29845833333333
113,2014-04-29,125.72754166666665,,125.72754166666665
113,2014-04-30,121.259125,,121.259125
113,2014-05-01,90.28724999999999,,90.28724999999999
113,2014-05-02,87.9535,,87.9535
113,2014-05-03,87.93191666666667,,87.93191666666667
113,2014-05-04,87.79625,,87.79625
113,2014-05-05,97.35587500000001,,97.35587500000001
113,2014-05-06,141.70704166666667,,141.70704166666667
113,2014-05-07,112.38316666666667,,112.38316666666667
113,2014-05-08,102.78629166666667,,102.78629166666667
113,2014-05-09,137.9055,,137.9055
113,2014-05-10,148.52241666666666,,148.52241666666666
113,2014-05-11,138.92491666666666,,138.92491666666666
113,2014-05-12,161.68608333333333,,161.68608333333333
113,2014-05-13,177.89020833333333,,177.89020833333333
113,2014-05-14,149.64233333333334,,149.64233333333334
113,2014-05-15,172.022125,,172.022125
113,2014-05-16,119.02383333333334,,119.02383333333334
113,2014-05-17,77.36562500000001,,77.36562500000001
113,2014-05-18,-6.611958333333334,,-6.611958333333334
113,2014-05-19,102.503,,102.503
113,2014-05-20,134.35379166666667,,134.35379166666667
113,2014-05-21,134.59620833333335,,134.59620833333335
113,2014-05-22,134.35791666666668,,134.35791666666668
113,2014-05-23,134.7235,,134.7235
113,2014-05-24,135.28783333333334,,135.28783333333334
113,2014-05-25,135.283125,,135.283125
113,2014-05-26,134.85433333333333,,134.85433333333333
113,2014-05-27,166.82083333333333,,166.82083333333333
113,2014-05-28,178.095,,178.095